FW7016 Weather Reports


time (UTC)temp
C
wind
direction
speed
KPH
gust
KPH
rain 1hr
cm
rain 24hr
cm
rain mn
cm
humidity
%
barometer
mb
20260906210536 29 102 12.9 27.4 0.00 0.00 0.00 46 1018.2
20260906210036 29 161 14.5 17.7 0.00 0.00 0.00 46 1018.3
20260906205531 29 153 11.3 17.7 0.00 0.00 0.00 45 1018.2
20260906205027 30 173 17.7 24.1 0.00 0.00 0.00 45 1018.6
20260906204526 29 161 19.3 22.5 0.00 0.00 0.00 45 1018.7
20260906204021 29 181 20.9 27.4 0.00 0.00 0.00 46 1018.9
20260906203516 29 168 12.9 22.5 0.00 0.00 0.00 47 1018.7
20260906203015 29 138 11.3 24.1 0.00 0.00 0.00 44 1019.0
20260906202513 28 190 12.9 17.7 0.00 0.00 0.00 47 1019.0
20260906202008 29 198 14.5 22.5 0.00 0.00 0.00 43 1018.8
20260906201507 28 166 12.9 14.5 0.00 0.00 0.00 46 1018.8
20260906201007 28 100 19.3 25.7 0.00 0.00 0.00 46 1018.7
20260906200503 28 167 14.5 20.9 0.00 0.00 0.00 46 1018.9
20260906195958 28 138 12.9 16.1 0.00 0.00 0.00 49 1018.8
20260906195454 28 166 20.9 24.1 0.00 0.00 0.00 48 1018.7
20260906194950 28 133 14.5 17.7 0.00 0.00 0.00 49 1019.0
20260906194446 28 121 9.7 14.5 0.00 0.00 0.00 47 1019.0
20260906193941 28 150 17.7 22.5 0.00 0.00 0.00 49 1018.9
20260906193436 27 157 11.3 17.7 0.00 0.00 0.00 51 1019.4
20260906192931 28 163 17.7 22.5 0.00 0.00 0.00 51 1019.5
20260906192431 27 149 11.3 24.1 0.00 0.00 0.00 52 1019.3
20260906191931 27 129 19.3 22.5 0.00 0.00 0.00 53 1019.7
20260906191426 27 152 9.7 17.7 0.00 0.00 0.00 53 1019.6
20260906190925 28 172 17.7 20.9 0.00 0.00 0.00 52 1019.9
20260906190424 28 178 16.1 17.7 0.00 0.00 0.00 47 1019.9
20260906185919 27 152 14.5 17.7 0.00 0.00 0.00 51 1020.0
20260906185418 27 165 12.9 14.5 0.00 0.00 0.00 51 1020.2
20260906184917 27 143 12.9 20.9 0.00 0.00 0.00 52 1020.0
20260906184413 27 159 11.3 14.5 0.00 0.00 0.00 54 1020.3
20260906183908 27 174 14.5 25.7 0.00 0.00 0.00 52 1020.0
20260906183404 26 164 12.9 17.7 0.00 0.00 0.00 54 1020.1
20260906182859 26 137 19.3 24.1 0.00 0.00 0.00 53 1020.1
20260906182354 27 151 17.7 20.9 0.00 0.00 0.00 52 1020.1
20260906181850 27 177 14.5 17.7 0.00 0.00 0.00 54 1020.7
20260906181346 26 165 16.1 17.7 0.00 0.00 0.00 54 1020.4
20260906180841 26 171 8.0 14.5 0.00 0.00 0.00 54 1020.6
20260906180336 26 168 11.3 16.1 0.00 0.00 0.00 54 1020.9
20260906175833 26 154 4.8 16.1 0.00 0.00 0.00 55 1020.8
20260906175329 25 139 12.9 25.7 0.00 0.00 0.00 56 1021.0
20260906174828 26 200 8.0 14.5 0.00 0.00 0.00 56 1021.2
20260906174327 25 165 9.7 12.9 0.00 0.00 0.00 57 1021.2
20260906173822 25 147 27.4 33.8 0.00 0.00 0.00 55 1021.2
20260906173318 25 207 9.7 16.1 0.00 0.00 0.00 59 1021.4
20260906172817 25 192 8.0 14.5 0.00 0.00 0.00 60 1021.2
20260906172314 25 147 9.7 29.0 0.00 0.00 0.00 61 1021.3
20260906171814 25 183 19.3 27.4 0.00 0.00 0.00 58 1021.4
20260906171308 24 166 12.9 25.7 0.00 0.00 0.00 62 1021.3
20260906170804 24 168 12.9 24.1 0.00 0.00 0.00 61 1021.6
20260906170300 23 180 24.1 33.8 0.00 0.00 0.00 63 1021.4
20260906165756 23 172 17.7 25.7 0.00 0.00 0.00 67 1021.6
20260906165255 23 216 14.5 16.1 0.00 0.00 0.00 66 1021.4
20260906164750 22 194 20.9 25.7 0.00 0.00 0.00 66 1021.6
20260906164250 22 146 32.2 35.4 0.00 0.00 0.00 66 1021.6
20260906163746 22 173 11.3 14.5 0.00 0.00 0.00 69 1021.9
20260906163242 22 170 11.3 27.4 0.00 0.00 0.00 67 1021.9
20260906162739 22 216 22.5 27.4 0.00 0.00 0.00 68 1021.7
20260906162233 22 215 22.5 29.0 0.00 0.00 0.00 65 1022.0
20260906161733 22 208 19.3 25.7 0.00 0.00 0.00 69 1021.7
20260906161232 22 172 24.1 38.6 0.00 0.00 0.00 67 1021.9
20260906160732 21 186 17.7 35.4 0.00 0.00 0.00 70 1021.9
20260906160226 21 223 27.4 43.5 0.00 0.00 0.00 68 1021.9
20260906155723 21 222 20.9 40.2 0.00 0.00 0.00 68 1022.1
20260906155218 21 195 30.6 41.8 0.00 0.00 0.00 68 1021.9
20260906154714 21 198 17.7 22.5 0.00 0.00 0.00 70 1021.9
20260906154209 21 149 25.7 33.8 0.00 0.00 0.00 68 1022.1
20260906153707 21 186 16.1 37.0 0.00 0.00 0.00 68 1022.1
20260906153202 21 174 29.0 32.2 0.00 0.00 0.00 67 1022.0
20260906152657 21 209 29.0 40.2 0.00 0.00 0.00 68 1021.9
20260906152151 21 202 19.3 37.0 0.00 0.00 0.00 68 1022.2
20260906151645 21 192 24.1 35.4 0.00 0.00 0.00 68 1022.1
20260906151141 20 203 14.5 40.2 0.00 0.00 0.00 68 1022.0
20260906150636 20 180 17.7 32.2 0.00 0.00 0.00 69 1021.9
20260906150132 20 208 20.9 41.8 0.00 0.00 0.00 69 1022.2
20260906145631 20 183 17.7 29.0 0.00 0.00 0.00 68 1022.0
20260906145125 20 184 14.5 20.9 0.00 0.00 0.00 69 1022.1
20260906144620 20 166 14.5 24.1 0.00 0.00 0.00 69 1022.0
20260906144115 20 192 16.1 40.2 0.00 0.00 0.00 70 1022.1
20260906143615 20 185 29.0 35.4 0.00 0.00 0.00 71 1022.0
20260906143112 18 186 24.1 29.0 0.00 0.00 0.00 72 1021.7
20260906142611 18 237 22.5 33.8 0.00 0.00 0.00 74 1022.1
20260906142106 18 209 20.9 25.7 0.00 0.00 0.00 75 1022.1
20260906141605 18 215 24.1 27.4 0.00 0.00 0.00 75 1022.2
20260906141101 17 214 22.5 25.7 0.00 0.00 0.00 75 1022.1
20260906140559 17 208 11.3 20.9 0.00 0.00 0.00 76 1021.7
20260906140054 17 221 12.9 29.0 0.00 0.00 0.00 77 1021.7
20260906135551 17 246 19.3 27.4 0.00 0.00 0.00 78 1021.7
20260906135047 16 226 20.9 25.7 0.00 0.00 0.00 79 1022.0
20260906134543 16 213 19.3 29.0 0.00 0.00 0.00 80 1022.1
20260906134038 16 210 11.3 20.9 0.00 0.00 0.00 82 1021.9
20260906133533 15 215 14.5 17.7 0.00 0.00 0.00 83 1021.7
20260906133028 15 216 12.9 17.7 0.00 0.00 0.00 85 1022.2
20260906132524 15 243 8.0 12.9 0.00 0.00 0.00 86 1022.1
20260906132019 15 228 4.8 9.7 0.00 0.00 0.00 87 1021.9
20260906131514 14 216 6.4 8.0 0.00 0.00 0.00 88 1021.7
20260906131010 13 222 6.4 8.0 0.00 0.00 0.00 89 1022.0
20260906130509 13 229 4.8 4.8 0.00 0.00 0.00 89 1021.9
20260906130004 13 218 6.4 8.0 0.00 0.00 0.00 89 1021.6
20260906125502 13 220 4.8 8.0 0.00 0.00 0.00 89 1021.5
20260906125001 13 214 4.8 4.8 0.00 0.00 0.00 89 1021.7
20260906124457 13 213 3.2 3.2 0.00 0.00 0.00 89 1021.7
20260906123951 13 202 3.2 4.8 0.00 0.00 0.00 89 1021.6
20260906123450 14 219 4.8 8.0 0.00 0.00 0.00 89 1021.5
20260906122944 14 240 8.0 9.7 0.00 0.00 0.00 89 1021.4
20260906122439 14 226 4.8 8.0 0.00 0.00 0.00 90 1021.4
20260906121937 14 223 8.0 11.3 0.00 0.00 0.00 90 1021.5
20260906121432 14 231 8.0 9.7 0.00 0.00 0.00 90 1021.4
20260906120929 14 221 4.8 8.0 0.00 0.00 0.00 90 1021.4
20260906120424 15 204 3.2 4.8 0.00 0.00 0.00 90 1021.3
20260906115920 15 235 8.0 9.7 0.00 0.00 0.00 90 1021.0
20260906115415 15 221 6.4 8.0 0.00 0.00 0.00 89 1021.2
20260906114915 15 200 4.8 4.8 0.00 0.00 0.00 90 1020.8
20260906114410 15 193 4.8 4.8 0.00 0.00 0.00 90 1021.3
20260906113905 15 203 1.6 3.2 0.00 0.00 0.00 89 1021.3
20260906113403 15 204 1.6 3.2 0.00 0.00 0.00 89 1021.0
20260906112859 15 200 4.8 4.8 0.00 0.00 0.00 90 1021.3
20260906112349 15 219 4.8 8.0 0.00 0.00 0.00 89 1021.5
20260906111843 15 201 4.8 4.8 0.00 0.00 0.00 89 1021.3
20260906111343 15 202 1.6 1.6 0.00 0.00 0.00 89 1021.2
20260906110839 15 204 1.6 3.2 0.00 0.00 0.00 89 1021.0
20260906110334 15 200 3.2 3.2 0.00 0.00 0.00 89 1021.3
20260906105833 15 206 3.2 3.2 0.00 0.00 0.00 88 1021.2
20260906105329 15 199 3.2 4.8 0.00 0.00 0.00 88 1021.2
20260906104819 15 207 8.0 9.7 0.00 0.00 0.00 87 1021.4
20260906104317 15 225 4.8 8.0 0.00 0.00 0.00 87 1021.3
20260906103816 15 192 0.0 0.0 0.00 0.00 0.00 87 1021.5
20260906103309 14 215 1.6 3.2 0.00 0.00 0.00 87 1021.2
20260906102805 14 192 0.0 0.0 0.00 0.00 0.00 87 1021.4
20260906102306 14 176 0.0 0.0 0.00 0.00 0.00 87 1021.4
20260906101759 14 182 0.0 0.0 0.00 0.00 0.00 87 1021.4
20260906101254 14 202 1.6 1.6 0.00 0.00 0.00 87 1021.4
20260906100750 15 187 0.0 0.0 0.00 0.00 0.00 86 1021.5
20260906100249 15 188 0.0 0.0 0.00 0.00 0.00 86 1021.2
20260906095744 15 173 0.0 0.0 0.00 0.00 0.00 85 1021.0
20260906095239 15 173 0.0 0.0 0.00 0.00 0.00 85 1021.3
20260906094739 15 107 4.8 8.0 0.00 0.00 0.00 85 1021.3
20260906094234 15 163 0.0 0.0 0.00 0.00 0.00 86 1020.9
20260906093730 15 158 0.0 0.0 0.00 0.00 0.00 86 1021.2
20260906093225 15 185 0.0 0.0 0.00 0.00 0.00 86 1021.0
20260906092721 15 193 0.0 0.0 0.00 0.00 0.00 86 1020.9
20260906092220 15 197 0.0 1.6 0.00 0.00 0.00 86 1020.8
20260906091717 15 197 4.8 8.0 0.00 0.00 0.00 86 1020.4
20260906091213 15 213 4.8 8.0 0.00 0.00 0.00 85 1020.8
20260906090709 15 197 3.2 3.2 0.00 0.00 0.00 86 1020.6
20260906090208 15 213 4.8 8.0 0.00 0.00 0.00 85 1020.7
20260906085707 15 212 1.6 3.2 0.00 0.00 0.00 84 1020.6
20260906085206 15 209 4.8 8.0 0.00 0.00 0.00 85 1020.8
20260906084701 15 247 6.4 8.0 0.00 0.00 0.00 85 1020.8
20260906084155 15 247 4.8 11.3 0.00 0.00 0.00 84 1021.0
20260906083649 14 239 3.2 8.0 0.00 0.00 0.00 87 1020.8
20260906083145 14 219 4.8 4.8 0.00 0.00 0.00 87 1021.0
20260906082640 14 206 3.2 3.2 0.00 0.00 0.00 86 1021.0
20260906082136 15 193 3.2 4.8 0.00 0.00 0.00 85 1020.8
20260906081631 14 275 4.8 8.0 0.00 0.00 0.00 86 1020.6
20260906081127 14 202 1.6 3.2 0.00 0.00 0.00 86 1021.2
20260906080623 15 232 3.2 4.8 0.00 0.00 0.00 85 1020.9
20260906080119 15 242 6.4 9.7 0.00 0.00 0.00 86 1021.0
20260906075618 14 258 4.8 9.7 0.00 0.00 0.00 86 1020.9
20260906075113 14 212 1.6 3.2 0.00 0.00 0.00 86 1021.3
20260906074609 14 187 0.0 0.0 0.00 0.00 0.00 86 1021.2
20260906074107 14 201 0.0 1.6 0.00 0.00 0.00 86 1021.4
20260906073602 14 214 1.6 3.2 0.00 0.00 0.00 87 1021.4
20260906073058 14 181 0.0 0.0 0.00 0.00 0.00 87 1021.4
20260906072552 14 175 0.0 0.0 0.00 0.00 0.00 87 1021.3
20260906072049 14 232 6.4 8.0 0.00 0.00 0.00 87 1020.9
20260906071545 14 302 6.4 8.0 0.00 0.00 0.00 86 1020.8
20260906071039 14 230 3.2 3.2 0.00 0.00 0.00 86 1021.0
20260906070536 14 225 1.6 4.8 0.00 0.00 0.00 86 1021.0
20260906070032 14 213 3.2 4.8 0.00 0.00 0.00 86 1021.0
20260906065531 14 192 0.0 3.2 0.00 0.00 0.00 86 1020.9
20260906065027 14 221 3.2 4.8 0.00 0.00 0.00 86 1020.6
20260906064522 15 278 4.8 4.8 0.00 0.00 0.00 86 1020.8
20260906064017 15 188 0.0 3.2 0.00 0.00 0.00 87 1020.8
20260906063512 14 258 3.2 3.2 0.00 0.00 0.00 87 1020.8
20260906063008 14 251 4.8 4.8 0.00 0.00 0.00 86 1020.6
20260906062503 15 280 6.4 8.0 0.00 0.00 0.00 86 1020.7
20260906061957 15 257 6.4 8.0 0.00 0.00 0.00 86 1020.8
20260906061453 15 287 6.4 8.0 0.00 0.00 0.00 86 1020.8
20260906060947 15 214 1.6 3.2 0.00 0.00 0.00 85 1020.8
20260906060444 15 182 0.0 0.0 0.00 0.00 0.00 85 1020.8
20260906055941 15 182 0.0 0.0 0.00 0.00 0.00 85 1020.8
20260906055436 16 182 1.6 1.6 0.00 0.00 0.00 84 1020.9
20260906054932 16 202 0.0 1.6 0.00 0.00 0.00 84 1020.8
20260906054426 16 193 0.0 0.0 0.00 0.00 0.00 83 1020.9
20260906053922 16 191 0.0 0.0 0.00 0.00 0.00 83 1020.7
20260906053418 16 188 0.0 1.6 0.00 0.00 0.00 83 1020.8
20260906052914 16 232 3.2 3.2 0.00 0.00 0.00 83 1020.7
20260906052410 16 207 1.6 3.2 0.00 0.00 0.00 82 1020.8
20260906051907 17 173 0.0 0.0 0.00 0.00 0.00 81 1020.4
20260906051406 17 172 0.0 3.2 0.00 0.00 0.00 81 1020.9
20260906050902 17 166 1.6 1.6 0.00 0.00 0.00 81 1020.8
20260906050357 17 156 4.8 4.8 0.00 0.00 0.00 80 1020.7
20260906045856 17 151 4.8 8.0 0.00 0.00 0.00 80 1020.6
20260906045355 17 150 6.4 8.0 0.00 0.00 0.00 79 1020.6
20260906044852 17 139 8.0 8.0 0.00 0.00 0.00 79 1020.4
20260906044352 18 153 4.8 8.0 0.00 0.00 0.00 79 1020.8
20260906043847 18 152 4.8 8.0 0.00 0.00 0.00 79 1020.7
20260906043343 18 140 6.4 12.9 0.00 0.00 0.00 78 1020.6
20260906042838 18 132 14.5 16.1 0.00 0.00 0.00 78 1020.8
20260906042337 18 143 14.5 24.1 0.00 0.00 0.00 78 1021.0
20260906041833 18 106 17.7 25.7 0.00 0.00 0.00 77 1021.2
20260906041328 18 108 16.1 25.7 0.00 0.00 0.00 76 1021.0
20260906040823 18 114 17.7 17.7 0.00 0.00 0.00 75 1021.0
20260906040318 19 139 16.1 20.9 0.00 0.00 0.00 75 1021.0
20260906035813 19 100 14.5 17.7 0.00 0.00 0.00 74 1020.9
20260906035309 19 109 14.5 22.5 0.00 0.00 0.00 74 1021.3
20260906034803 19 134 17.7 20.9 0.00 0.00 0.00 73 1021.0
20260906034258 20 132 14.5 17.7 0.00 0.00 0.00 72 1020.8
20260906033754 20 119 11.3 20.9 0.00 0.00 0.00 71 1020.8
20260906033253 20 117 9.7 14.5 0.00 0.00 0.00 70 1020.8
20260906032750 20 138 9.7 14.5 0.00 0.00 0.00 69 1020.9
20260906032250 20 153 14.5 22.5 0.00 0.00 0.00 68 1020.8
20260906031745 21 118 14.5 17.7 0.00 0.00 0.00 65 1020.7
20260906031241 21 128 14.5 16.1 0.00 0.00 0.00 63 1020.6
20260906030740 21 116 14.5 24.1 0.00 0.00 0.00 62 1020.7
20260906030235 21 140 16.1 22.5 0.00 0.00 0.00 61 1020.4
20260906025734 21 94 8.0 12.9 0.00 0.00 0.00 60 1020.8
20260906025229 21 123 12.9 17.7 0.00 0.00 0.00 60 1020.3
20260906024728 22 123 12.9 14.5 0.00 0.00 0.00 60 1020.1
20260906024227 22 112 11.3 16.1 0.00 0.00 0.00 59 1020.1
20260906023724 22 72 8.0 12.9 0.00 0.00 0.00 58 1019.9
20260906023219 22 122 11.3 17.7 0.00 0.00 0.00 58 1019.9
20260906022714 22 83 1.6 4.8 0.00 0.00 0.00 54 1019.7
20260906022209 23 145 6.4 9.7 0.00 0.00 0.00 53 1019.6
20260906021705 23 153 4.8 8.0 0.00 0.00 0.00 52 1019.1
20260906021204 23 128 11.3 12.9 0.00 0.00 0.00 50 1019.5
20260906020659 23 121 8.0 12.9 0.00 0.00 0.00 45 1019.3
20260906020154 23 46 4.8 9.7 0.00 0.00 0.00 44 1019.3
20260906015648 24 74 8.0 12.9 0.00 0.00 0.00 42 1018.9
20260906015146 24 62 8.0 11.3 0.00 0.00 0.00 43 1019.0
20260906014641 25 60 9.7 14.5 0.00 0.00 0.00 42 1019.0
20260906014137 25 42 4.8 8.0 0.00 0.00 0.00 41 1019.1
20260906013632 25 66 4.8 4.8 0.00 0.00 0.00 42 1019.1
20260906013127 25 55 0.0 1.6 0.00 0.00 0.00 40 1019.3
20260906012616 25 101 1.6 4.8 0.00 0.00 0.00 40 1019.0
20260906012117 26 124 0.0 0.0 0.00 0.00 0.00 39 1018.8
20260906011612 26 209 3.2 4.8 0.00 0.00 0.00 38 1018.8
20260906011107 27 90 6.4 9.7 0.00 0.00 0.00 36 1019.1
20260906010602 27 8 8.0 9.7 0.00 0.00 0.00 35 1018.9
20260906010058 27 10 8.0 9.7 0.00 0.00 0.00 35 1018.9
20260906005557 28 46 8.0 9.7 0.00 0.00 0.00 35 1018.7
20260906005057 28 31 6.4 8.0 0.00 0.00 0.00 34 1018.9
20260906004556 29 16 6.4 8.0 0.00 0.00 0.00 34 1018.9
20260906004051 29 331 8.0 9.7 0.00 0.00 0.00 33 1019.1
20260906003546 29 36 8.0 11.3 0.00 0.00 0.00 32 1019.0
20260906003042 29 13 9.7 11.3 0.00 0.00 0.00 31 1018.8
20260906002537 29 180 6.4 12.9 0.00 0.00 0.00 31 1018.8
20260906002031 29 29 8.0 11.3 0.00 0.00 0.00 32 1018.9
20260906001527 29 43 6.4 9.7 0.00 0.00 0.00 31 1018.7
20260906001021 29 252 6.4 9.7 0.00 0.00 0.00 31 1019.1
20260906000518 30 18 8.0 9.7 0.00 0.00 0.00 31 1019.0
20260906000018 29 39 11.3 12.9 0.00 0.00 0.00 31 1018.7
20260905235511 30 13 12.9 14.5 0.00 0.00 0.00 31 1018.8
20260905235006 30 338 8.0 12.9 0.00 0.00 0.00 30 1018.9
20260905234503 30 9 8.0 12.9 0.00 0.00 0.00 30 1019.1
20260905233956 30 20 14.5 14.5 0.00 0.00 0.00 29 1018.8
20260905233452 30 40 4.8 16.1 0.00 0.00 0.00 30 1018.9
20260905232950 30 39 11.3 16.1 0.00 0.00 0.00 29 1018.9
20260905232447 30 33 9.7 16.1 0.00 0.00 0.00 30 1018.8
20260905231942 30 37 11.3 22.5 0.00 0.00 0.00 29 1018.8
20260905231438 30 2 16.1 22.5 0.00 0.00 0.00 29 1018.7
20260905230934 30 349 14.5 17.7 0.00 0.00 0.00 29 1018.7
20260905230432 30 337 9.7 11.3 0.00 0.00 0.00 29 1018.4
20260905225931 30 352 11.3 20.9 0.00 0.00 0.00 29 1018.6
20260905225426 30 6 11.3 12.9 0.00 0.00 0.00 29 1018.2
20260905224921 30 88 11.3 17.7 0.00 0.00 0.00 29 1018.4
20260905224417 31 3 20.9 27.4 0.00 0.00 0.00 28 1018.6
20260905223916 30 178 0.0 4.8 0.00 0.00 0.00 28 1018.7
20260905223415 30 56 12.9 20.9 0.00 0.00 0.00 28 1018.6
20260905222915 31 5 9.7 16.1 0.00 0.00 0.00 29 1018.6
20260905222414 30 88 14.5 16.1 0.00 0.00 0.00 28 1018.4
20260905221910 30 64 8.0 9.7 0.00 0.00 0.00 29 1018.8
20260905221407 31 49 9.7 20.9 0.00 0.00 0.00 28 1018.7
20260905220902 30 59 9.7 16.1 0.00 0.00 0.00 28 1018.4
20260905220358 30 54 1.6 20.9 0.00 0.00 0.00 28 1018.7
20260905215857 30 59 14.5 17.7 0.00 0.00 0.00 27 1018.9
20260905215353 31 30 11.3 20.9 0.00 0.00 0.00 28 1018.9
20260905214849 31 44 6.4 12.9 0.00 0.00 0.00 28 1018.9
20260905214344 31 47 6.4 11.3 0.00 0.00 0.00 27 1019.1
20260905213839 30 34 16.1 25.7 0.00 0.00 0.00 27 1019.1
20260905213336 30 104 9.7 12.9 0.00 0.00 0.00 27 1019.3
20260905212836 30 60 14.5 17.7 0.00 0.00 0.00 27 1019.4
20260905212336 30 359 1.6 9.7 0.00 0.00 0.00 27 1019.5
20260905211830 30 123 0.0 25.7 0.00 0.00 0.00 28 1019.5
20260905211326 30 50 3.2 9.7 0.00 0.00 0.00 28 1019.5
20260905210822 30 62 6.4 14.5 0.00 0.00 0.00 27 1019.9